Kalamazoo, MI

4:24 PM EDT on April 23, 2018 (GMT -0400)
Kalamazoo-Battle Creek International

Weather History for KAZO - September, 2011

Change the Weather History Date:

Wednesday, September 7, 2011

  Actual Average Record
Temperature  
Mean Temperature 59 °F 66 °F  
Max Temperature 67 °F 76 °F 97 °F (1960)
Min Temperature 51 °F 56 °F 42 °F (1962)
Degree Days  
Heating Degree Days 6 2  
Month to date heating degree days 10  
Since 1 July heating degree days 26  
Cooling Degree Days 0 3  
Month to date cooling degree days 24  
Year to date cooling degree days 635  
Growing Degree Days 8 (Base 50)    
Moisture  
Dew Point 49 °F    
Average Humidity 74    
Maximum Humidity 89    
Minimum Humidity 54    
Precipitation  
Precipitation T in 0.11 in 2.08 in (2015)
Month to date precipitation 0.08 1.02  
Year to date precipitation 24.61  
Sea Level Pressure  
Sea Level Pressure 30.14 in    
Wind  
Wind Speed 9 mph (NNE)    
Max Wind Speed 18 mph    
Max Gust Speed 25 mph    
Visibility 10 miles    
Events      
T = Trace of Precipitation, MM = Missing Value Source: NWS Daily Summary

Daily Weather History Graph

Daily Weather History Graph

Search for Another Location

Airport or City:

Astronomy

Sep. 07, 2011 Rise Set
Actual Time 7:13 AM EDT 8:06 PM EDT
Civil Twilight 6:45 AM EDT 8:34 PM EDT
Nautical Twilight 6:11 AM EDT 9:08 PM EDT
Astronomical Twilight 5:35 AM EDT 9:43 PM EDT
Moon 5:27 PM EDT (9/7) 2:24 AM EDT (9/7)
Length of Visible Light 13h 49m
Length of Day
12h 52m
Waxing Gibbous, 79% of the Moon is Illuminated
Sep 7
Waxing Gibbous
Sep 12
Full
Sep 20
Last Quarter
Sep 27
New
Oct 3
First Quarter

Hourly Weather History & Observations

Time (EDT) Temp. Dew Point Humidity Pressure Visibility Wind Dir Wind Speed Gust Speed Precip Events Conditions
12:53 AM 53.1 °F 46.9 °F 80% 30.17 in 10.0 mi NE 4.6 mph - N/A   Partly Cloudy
1:53 AM 54.0 °F 48.0 °F 80% 30.16 in 10.0 mi NE 8.1 mph - N/A   Overcast
2:00 AM 55.4 °F 48.2 °F 77% 30.16 in 10.0 mi NE 5.8 mph - N/A   Overcast
2:33 AM 53.6 °F 46.4 °F 77% 30.15 in 10.0 mi NNE 6.9 mph - N/A   Partly Cloudy
2:53 AM 52.0 °F 46.9 °F 83% 30.14 in 10.0 mi NNE 5.8 mph - N/A   Clear
3:53 AM 52.0 °F 46.9 °F 83% 30.14 in 10.0 mi North 5.8 mph - N/A   Clear
4:53 AM 51.1 °F 46.9 °F 86% 30.14 in 10.0 mi NNE 9.2 mph - N/A   Clear
5:53 AM 51.1 °F 48.0 °F 89% 30.14 in 10.0 mi NNE 8.1 mph - N/A   Clear
6:53 AM 51.1 °F 48.0 °F 89% 30.14 in 10.0 mi NNE 6.9 mph - N/A   Clear
7:13 AM 51.8 °F 48.2 °F 88% 30.15 in 10.0 mi NNE 5.8 mph - N/A   Partly Cloudy
7:22 AM 51.8 °F 48.2 °F 88% 30.15 in 10.0 mi NNE 4.6 mph - N/A   Mostly Cloudy
7:53 AM 52.0 °F 48.9 °F 89% 30.17 in 10.0 mi NNE 6.9 mph - N/A   Mostly Cloudy
8:33 AM 53.6 °F 50.0 °F 88% 30.16 in 10.0 mi NNE 6.9 mph - N/A   Scattered Clouds
8:53 AM 55.0 °F 50.0 °F 83% 30.16 in 10.0 mi North 9.2 mph - N/A   Partly Cloudy
9:53 AM 57.9 °F 51.1 °F 78% 30.16 in 10.0 mi NNE 8.1 mph 17.3 mph N/A   Partly Cloudy
10:53 AM 60.8 °F 51.8 °F 72% 30.16 in 10.0 mi NE 10.4 mph 18.4 mph N/A   Partly Cloudy
11:53 AM 62.6 °F 51.8 °F 68% 30.15 in 10.0 mi NNE 9.2 mph 20.7 mph N/A   Partly Cloudy
12:53 PM 64.0 °F 50.0 °F 60% 30.14 in 10.0 mi NNE 11.5 mph 20.7 mph N/A   Partly Cloudy
1:53 PM 64.0 °F 50.0 °F 60% 30.13 in 10.0 mi NNE 13.8 mph 23.0 mph N/A   Partly Cloudy
2:53 PM 66.0 °F 50.0 °F 56% 30.12 in 10.0 mi NNE 15.0 mph 25.3 mph N/A   Scattered Clouds
3:53 PM 66.9 °F 52.0 °F 59% 30.11 in 10.0 mi NNE 13.8 mph 20.7 mph N/A   Mostly Cloudy
4:53 PM 66.0 °F 51.1 °F 59% 30.11 in 10.0 mi North 10.4 mph 23.0 mph N/A   Mostly Cloudy
5:53 PM 66.9 °F 50.0 °F 54% 30.10 in 10.0 mi NNE 10.4 mph 19.6 mph N/A   Scattered Clouds
6:53 PM 64.9 °F 48.9 °F 56% 30.12 in 10.0 mi NNE 9.2 mph - N/A   Partly Cloudy
7:53 PM 64.0 °F 50.0 °F 60% 30.12 in 10.0 mi North 9.2 mph - N/A   Mostly Cloudy
8:53 PM 62.1 °F 52.0 °F 70% 30.12 in 10.0 mi NE 3.5 mph - 0.00 in   Mostly Cloudy
9:53 PM 61.0 °F 51.1 °F 70% 30.13 in 10.0 mi NNE 5.8 mph - N/A   Mostly Cloudy
10:53 PM 60.1 °F 50.0 °F 69% 30.13 in 10.0 mi NNE 6.9 mph - N/A   Clear
11:53 PM 57.2 °F 48.2 °F 72% 30.11 in 10.0 mi North 8.1 mph - N/A   Clear